Tabellarische Ansicht des 9.7.2019


Die einzelnen Werte des Tages

Uhrzeit Temperatur Luftdruck Luftfeuchte Wind Hi-Wind Taupunkt THW Index Wind Chill Heat Index Solar- strahlung Regen

00:00

13.4 C

1015.4 hpa

73 %

6.4 km/h aus 115

11.3 km/h aus WSW

8.6 C

12.9 C

13.3 C

13.0 C

0 W/m

0.00 mm

00:05

13.4 C

1015.4 hpa

73 %

4.8 km/h aus 114

9.7 km/h aus NW

8.6 C

13.0 C

13.4 C

13.0 C

0 W/m

0.00 mm

00:10

13.3 C

1015.4 hpa

73 %

8.0 km/h aus 117

14.5 km/h aus WNW

8.6 C

12.6 C

12.9 C

12.9 C

0 W/m

0.00 mm

00:15

13.3 C

1015.4 hpa

73 %

8.0 km/h aus 115

16.1 km/h aus W

8.6 C

12.6 C

12.9 C

12.9 C

0 W/m

0.00 mm

00:20

13.3 C

1015.4 hpa

74 %

8.0 km/h aus 115

17.7 km/h aus W

8.7 C

12.6 C

12.9 C

12.9 C

0 W/m

0.00 mm

00:25

13.3 C

1015.4 hpa

74 %

6.4 km/h aus 117

11.3 km/h aus W

8.7 C

12.8 C

13.2 C

12.9 C

0 W/m

0.00 mm

00:30

13.2 C

1015.5 hpa

74 %

8.0 km/h aus 117

14.5 km/h aus WNW

8.7 C

12.5 C

12.8 C

12.9 C

0 W/m

0.00 mm

00:35

13.2 C

1015.5 hpa

75 %

8.0 km/h aus 116

16.1 km/h aus W

8.9 C

12.5 C

12.8 C

12.9 C

0 W/m

0.00 mm

00:40

13.3 C

1015.5 hpa

75 %

8.0 km/h aus 115

14.5 km/h aus WSW

8.9 C

12.6 C

12.9 C

12.9 C

0 W/m

0.00 mm

00:45

13.2 C

1015.5 hpa

75 %

6.4 km/h aus 115

14.5 km/h aus WNW

8.9 C

12.8 C

13.1 C

12.9 C

0 W/m

0.00 mm

00:50

13.2 C

1015.5 hpa

75 %

4.8 km/h aus 118

9.7 km/h aus NW

8.9 C

12.9 C

13.2 C

12.9 C

0 W/m

0.00 mm

00:55

13.2 C

1015.5 hpa

75 %

8.0 km/h aus 117

17.7 km/h aus WSW

8.8 C

12.4 C

12.7 C

12.8 C

0 W/m

0.00 mm

01:00

13.1 C

1015.6 hpa

75 %

9.7 km/h aus 117

20.9 km/h aus WNW

8.8 C

12.1 C

12.4 C

12.8 C

0 W/m

0.00 mm

01:05

13.1 C

1015.6 hpa

75 %

6.4 km/h aus 114

14.5 km/h aus WNW

8.7 C

12.6 C

12.9 C

12.8 C

0 W/m

0.00 mm

01:10

13.1 C

1015.6 hpa

76 %

6.4 km/h aus 115

9.7 km/h aus WNW

8.9 C

12.6 C

12.9 C

12.8 C

0 W/m

0.00 mm

01:15

13.0 C

1015.5 hpa

76 %

9.7 km/h aus 117

19.3 km/h aus WNW

8.9 C

12.0 C

12.3 C

12.7 C

0 W/m

0.00 mm

01:20

12.9 C

1015.5 hpa

76 %

9.7 km/h aus 116

16.1 km/h aus WSW

8.8 C

11.8 C

12.1 C

12.6 C

0 W/m

0.00 mm

01:25

12.8 C

1015.5 hpa

76 %

9.7 km/h aus 117

17.7 km/h aus WNW

8.7 C

11.8 C

12.1 C

12.6 C

0 W/m

0.00 mm

01:30

12.8 C

1015.5 hpa

76 %

6.4 km/h aus 117

12.9 km/h aus WSW

8.7 C

12.3 C

12.6 C

12.6 C

0 W/m

0.00 mm

01:35

12.8 C

1015.5 hpa

76 %

9.7 km/h aus 114

16.1 km/h aus W

8.7 C

11.7 C

12.0 C

12.5 C

0 W/m

0.00 mm

01:40

12.8 C

1015.5 hpa

76 %

6.4 km/h aus 116

11.3 km/h aus W

8.7 C

12.3 C

12.6 C

12.5 C

0 W/m

0.00 mm

01:45

12.7 C

1015.5 hpa

76 %

11.3 km/h aus 116

17.7 km/h aus WNW

8.5 C

11.4 C

11.7 C

12.4 C

0 W/m

0.00 mm

01:50

12.7 C

1015.5 hpa

76 %

9.7 km/h aus 117

19.3 km/h aus W

8.5 C

11.6 C

11.9 C

12.4 C

0 W/m

0.00 mm

01:55

12.6 C

1015.5 hpa

76 %

11.3 km/h aus 118

20.9 km/h aus WNW

8.4 C

11.2 C

11.5 C

12.3 C

0 W/m

0.00 mm

02:00

12.5 C

1015.6 hpa

76 %

11.3 km/h aus 114

17.7 km/h aus W

8.4 C

11.2 C

11.4 C

12.2 C

0 W/m

0.00 mm

02:05

12.4 C

1015.6 hpa

76 %

8.0 km/h aus 115

16.1 km/h aus W

8.3 C

11.6 C

11.9 C

12.2 C

0 W/m

0.00 mm

02:10

12.4 C

1015.6 hpa

76 %

9.7 km/h aus 117

17.7 km/h aus WSW

8.3 C

11.3 C

11.6 C

12.2 C

0 W/m

0.00 mm

02:15

12.4 C

1015.5 hpa

76 %

8.0 km/h aus 117

19.3 km/h aus WNW

8.3 C

11.6 C

11.9 C

12.2 C

0 W/m

0.00 mm

02:20

12.4 C

1015.5 hpa

77 %

6.4 km/h aus 117

14.5 km/h aus W

8.5 C

11.9 C

12.1 C

12.2 C

0 W/m

0.00 mm

02:25

12.3 C

1015.5 hpa

77 %

8.0 km/h aus 115

16.1 km/h aus W

8.4 C

11.5 C

11.7 C

12.1 C

0 W/m

0.00 mm

02:30

12.3 C

1015.5 hpa

77 %

8.0 km/h aus 114

16.1 km/h aus WSW

8.4 C

11.5 C

11.7 C

12.1 C

0 W/m

0.00 mm

02:35

12.3 C

1015.5 hpa

77 %

6.4 km/h aus 116

11.3 km/h aus WSW

8.4 C

11.8 C

12.1 C

12.1 C

0 W/m

0.00 mm

02:40

12.3 C

1015.5 hpa

78 %

8.0 km/h aus 117

17.7 km/h aus W

8.6 C

11.5 C

11.7 C

12.1 C

0 W/m

0.00 mm

02:45

12.3 C

1015.4 hpa

78 %

9.7 km/h aus 116

17.7 km/h aus WSW

8.6 C

11.2 C

11.4 C

12.1 C

0 W/m

0.00 mm

02:50

12.3 C

1015.4 hpa

78 %

8.0 km/h aus 115

16.1 km/h aus W

8.6 C

11.5 C

11.7 C

12.1 C

0 W/m

0.00 mm

02:55

12.3 C

1015.4 hpa

78 %

9.7 km/h aus 115

17.7 km/h aus WNW

8.6 C

11.2 C

11.4 C

12.1 C

0 W/m

0.00 mm

03:00

12.3 C

1015.4 hpa

78 %

8.0 km/h aus 118

16.1 km/h aus WSW

8.6 C

11.4 C

11.7 C

12.1 C

0 W/m

0.00 mm

03:05

12.3 C

1015.4 hpa

78 %

9.7 km/h aus 115

20.9 km/h aus W

8.6 C

11.2 C

11.4 C

12.1 C

0 W/m

0.00 mm

03:10

12.2 C

1015.4 hpa

78 %

9.7 km/h aus 117

17.7 km/h aus W

8.5 C

11.1 C

11.3 C

12.0 C

0 W/m

0.00 mm

03:15

12.2 C

1015.4 hpa

78 %

9.7 km/h aus 116

17.7 km/h aus WNW

8.5 C

11.1 C

11.3 C

12.0 C

0 W/m

0.00 mm

03:20

12.2 C

1015.4 hpa

79 %

6.4 km/h aus 113

9.7 km/h aus W

8.7 C

11.8 C

11.9 C

12.1 C

0 W/m

0.00 mm

03:25

12.2 C

1015.4 hpa

79 %

4.8 km/h aus 115

11.3 km/h aus WSW

8.6 C

12.0 C

12.2 C

12.0 C

0 W/m

0.00 mm

03:30

12.2 C

1015.4 hpa

79 %

9.7 km/h aus 117

19.3 km/h aus WSW

8.6 C

11.1 C

11.3 C

12.0 C

0 W/m

0.00 mm

03:35

12.2 C

1015.4 hpa

79 %

9.7 km/h aus 116

19.3 km/h aus WSW

8.6 C

11.1 C

11.3 C

12.0 C

0 W/m

0.00 mm

03:40

12.2 C

1015.4 hpa

79 %

8.0 km/h aus 116

16.1 km/h aus W

8.6 C

11.4 C

11.6 C

12.0 C

0 W/m

0.00 mm

03:45

12.1 C

1015.4 hpa

79 %

8.0 km/h aus 114

16.1 km/h aus W

8.5 C

11.2 C

11.4 C

11.9 C

0 W/m

0.00 mm

03:50

12.1 C

1015.4 hpa

79 %

9.7 km/h aus 116

17.7 km/h aus WSW

8.5 C

10.9 C

11.1 C

11.9 C

0 W/m

0.00 mm

03:55

12.1 C

1015.4 hpa

79 %

9.7 km/h aus 117

16.1 km/h aus W

8.5 C

10.9 C

11.1 C

11.9 C

0 W/m

0.00 mm

04:00

12.0 C

1015.3 hpa

79 %

9.7 km/h aus 116

16.1 km/h aus W

8.5 C

10.9 C

11.1 C

11.8 C

0 W/m

0.00 mm

04:05

12.0 C

1015.3 hpa

80 %

6.4 km/h aus 118

11.3 km/h aus W

8.7 C

11.5 C

11.7 C

11.8 C

0 W/m

0.00 mm

04:10

12.0 C

1015.3 hpa

80 %

8.0 km/h aus 113

20.9 km/h aus WSW

8.7 C

11.2 C

11.3 C

11.8 C

0 W/m

0.00 mm

04:15

11.9 C

1015.3 hpa

80 %

9.7 km/h aus 116

17.7 km/h aus W

8.6 C

10.8 C

11.0 C

11.8 C

0 W/m

0.00 mm

04:20

11.9 C

1015.3 hpa

80 %

8.0 km/h aus 117

14.5 km/h aus W

8.6 C

11.1 C

11.3 C

11.8 C

0 W/m

0.00 mm

04:25

11.9 C

1015.3 hpa

80 %

8.0 km/h aus 116

16.1 km/h aus W

8.5 C

11.1 C

11.2 C

11.7 C

0 W/m

0.00 mm

04:30

11.9 C

1015.4 hpa

80 %

8.0 km/h aus 116

14.5 km/h aus WSW

8.5 C

11.1 C

11.2 C

11.7 C

0 W/m

0.00 mm

04:35

11.8 C

1015.4 hpa

81 %

4.8 km/h aus 114

11.3 km/h aus W

8.7 C

11.7 C

11.8 C

11.7 C

0 W/m

0.00 mm

04:40

11.8 C

1015.4 hpa

81 %

6.4 km/h aus 115

9.7 km/h aus SW

8.7 C

11.3 C

11.5 C

11.7 C

0 W/m

0.00 mm

04:45

11.8 C

1015.4 hpa

81 %

8.0 km/h aus 117

19.3 km/h aus W

8.7 C

11.0 C

11.2 C

11.7 C

0 W/m

0.00 mm

04:50

11.8 C

1015.4 hpa

81 %

9.7 km/h aus 116

17.7 km/h aus W

8.6 C

10.6 C

10.8 C

11.6 C

0 W/m

0.00 mm

04:55

11.8 C

1015.4 hpa

81 %

9.7 km/h aus 116

19.3 km/h aus WNW

8.6 C

10.6 C

10.8 C

11.6 C

0 W/m

0.00 mm

05:00

11.7 C

1015.4 hpa

81 %

8.0 km/h aus 114

17.7 km/h aus W

8.6 C

10.8 C

11.0 C

11.6 C

0 W/m

0.00 mm

05:05

11.7 C

1015.4 hpa

81 %

11.3 km/h aus 114

17.7 km/h aus W

8.5 C

10.3 C

10.4 C

11.5 C

0 W/m

0.00 mm

05:10

11.7 C

1015.4 hpa

82 %

9.7 km/h aus 118

17.7 km/h aus WSW

8.7 C

10.6 C

10.7 C

11.6 C

0 W/m

0.00 mm

05:15

11.7 C

1015.5 hpa

82 %

9.7 km/h aus 116

17.7 km/h aus W

8.7 C

10.6 C

10.7 C

11.6 C

1 W/m

0.00 mm

05:20

11.6 C

1015.5 hpa

82 %

9.7 km/h aus 117

17.7 km/h aus W

8.6 C

10.5 C

10.6 C

11.5 C

6 W/m

0.00 mm

05:25

11.6 C

1015.5 hpa

82 %

9.7 km/h aus 116

17.7 km/h aus W

8.6 C

10.5 C

10.6 C

11.5 C

7 W/m

0.00 mm

05:30

11.6 C

1015.5 hpa

82 %

6.4 km/h aus 113

14.5 km/h aus WSW

8.6 C

11.1 C

11.2 C

11.5 C

7 W/m

0.00 mm

05:35

11.6 C

1015.5 hpa

83 %

8.0 km/h aus 117

16.1 km/h aus WSW

8.8 C

10.8 C

10.9 C

11.5 C

7 W/m

0.00 mm

05:40

11.6 C

1015.5 hpa

83 %

9.7 km/h aus 117

16.1 km/h aus W

8.8 C

10.5 C

10.6 C

11.5 C

11 W/m

0.00 mm

05:45

11.6 C

1015.5 hpa

83 %

9.7 km/h aus 117

20.9 km/h aus WSW

8.8 C

10.5 C

10.6 C

11.5 C

13 W/m

0.00 mm

05:50

11.6 C

1015.5 hpa

83 %

9.7 km/h aus 117

20.9 km/h aus WNW

8.8 C

10.4 C

10.6 C

11.4 C

16 W/m

0.00 mm

05:55

11.6 C

1015.5 hpa

83 %

9.7 km/h aus 114

16.1 km/h aus WSW

8.8 C

10.5 C

10.6 C

11.5 C

21 W/m

0.00 mm

06:00

11.6 C

1015.6 hpa

83 %

11.3 km/h aus 115

19.3 km/h aus WSW

8.8 C

10.3 C

10.4 C

11.5 C

28 W/m

0.00 mm

06:05

11.6 C

1015.6 hpa

84 %

9.7 km/h aus 115

16.1 km/h aus W

9.0 C

10.6 C

10.6 C

11.6 C

32 W/m

0.00 mm

06:10

11.6 C

1015.6 hpa

84 %

9.7 km/h aus 117

19.3 km/h aus W

9.0 C

10.6 C

10.6 C

11.6 C

33 W/m

0.00 mm

06:15

11.6 C

1015.7 hpa

83 %

9.7 km/h aus 118

20.9 km/h aus W

8.8 C

10.5 C

10.6 C

11.5 C

36 W/m

0.00 mm

06:20

11.6 C

1015.7 hpa

83 %

9.7 km/h aus 116

16.1 km/h aus WSW

8.8 C

10.5 C

10.6 C

11.5 C

38 W/m

0.00 mm

06:25

11.7 C

1015.7 hpa

83 %

9.7 km/h aus 114

22.5 km/h aus WSW

8.9 C

10.6 C

10.7 C

11.6 C

39 W/m

0.00 mm

06:30

11.6 C

1015.9 hpa

83 %

11.3 km/h aus 117

20.9 km/h aus WSW

8.8 C

10.3 C

10.4 C

11.5 C

42 W/m

0.00 mm

06:35

11.7 C

1015.9 hpa

83 %

11.3 km/h aus 117

20.9 km/h aus W

8.9 C

10.3 C

10.4 C

11.6 C

45 W/m

0.00 mm

06:40

11.7 C

1015.9 hpa

83 %

9.7 km/h aus 117

20.9 km/h aus W

8.9 C

10.6 C

10.7 C

11.6 C

49 W/m

0.00 mm

06:45

11.7 C

1015.9 hpa

83 %

8.0 km/h aus 116

16.1 km/h aus W

8.9 C

10.8 C

10.9 C

11.6 C

53 W/m

0.00 mm

06:50

11.7 C

1015.9 hpa

84 %

8.0 km/h aus 114

16.1 km/h aus W

9.1 C

10.9 C

11.0 C

11.7 C

59 W/m

0.00 mm

06:55

11.8 C

1015.9 hpa

84 %

6.4 km/h aus 116

14.5 km/h aus W

9.2 C

11.3 C

11.4 C

11.7 C

66 W/m

0.00 mm

07:00

11.8 C

1015.9 hpa

84 %

6.4 km/h aus 117

14.5 km/h aus W

9.2 C

11.4 C

11.5 C

11.8 C

70 W/m

0.00 mm

07:05

11.9 C

1015.9 hpa

84 %

6.4 km/h aus 117

12.9 km/h aus SW

9.3 C

11.5 C

11.6 C

11.8 C

74 W/m

0.00 mm

07:10

11.9 C

1015.9 hpa

83 %

8.0 km/h aus 117

16.1 km/h aus WSW

9.1 C

11.2 C

11.3 C

11.8 C

73 W/m

0.00 mm

07:15

11.9 C

1016.0 hpa

83 %

9.7 km/h aus 114

19.3 km/h aus WSW

9.1 C

10.9 C

11.0 C

11.8 C

85 W/m

0.00 mm

07:20

12.0 C

1016.0 hpa

83 %

6.4 km/h aus 117

14.5 km/h aus WSW

9.2 C

11.6 C

11.7 C

11.9 C

99 W/m

0.00 mm

07:25

12.1 C

1016.0 hpa

83 %

6.4 km/h aus 117

16.1 km/h aus SW

9.3 C

11.6 C

11.7 C

11.9 C

97 W/m

0.00 mm

07:30

12.1 C

1016.0 hpa

83 %

6.4 km/h aus 117

11.3 km/h aus W

9.3 C

11.7 C

11.8 C

12.0 C

108 W/m

0.00 mm

07:35

12.2 C

1016.0 hpa

83 %

8.0 km/h aus 115

16.1 km/h aus W

9.4 C

11.4 C

11.6 C

12.1 C

128 W/m

0.00 mm

07:40

12.3 C

1016.0 hpa

82 %

9.7 km/h aus 114

19.3 km/h aus W

9.3 C

11.3 C

11.4 C

12.2 C

156 W/m

0.00 mm

07:45

12.4 C

1016.3 hpa

81 %

11.3 km/h aus 116

19.3 km/h aus WSW

9.3 C

11.2 C

11.4 C

12.3 C

166 W/m

0.00 mm

07:50

12.4 C

1016.3 hpa

81 %

11.3 km/h aus 117

17.7 km/h aus W

9.3 C

11.2 C

11.4 C

12.3 C

161 W/m

0.00 mm

07:55

12.6 C

1016.3 hpa

81 %

8.0 km/h aus 117

16.1 km/h aus WSW

9.4 C

11.9 C

12.1 C

12.4 C

181 W/m

0.00 mm

08:00

12.7 C

1016.1 hpa

80 %

9.7 km/h aus 117

16.1 km/h aus W

9.4 C

11.8 C

11.9 C

12.6 C

175 W/m

0.00 mm

08:05

12.7 C

1016.1 hpa

80 %

12.9 km/h aus 115

19.3 km/h aus W

9.4 C

11.2 C

11.3 C

12.6 C

167 W/m

0.00 mm

08:10

12.8 C

1016.1 hpa

81 %

9.7 km/h aus 114

16.1 km/h aus W

9.6 C

11.8 C

12.0 C

12.6 C

196 W/m

0.00 mm

08:15

12.8 C

1016.3 hpa

80 %

12.9 km/h aus 117

24.1 km/h aus WNW

9.5 C

11.3 C

11.4 C

12.7 C

191 W/m

0.00 mm

08:20

12.9 C

1016.3 hpa

80 %

11.3 km/h aus 118

16.1 km/h aus WSW

9.5 C

11.7 C

11.9 C

12.7 C

205 W/m

0.00 mm

08:25

13.0 C

1016.3 hpa

79 %

8.0 km/h aus 117

14.5 km/h aus W

9.4 C

12.4 C

12.6 C

12.8 C

206 W/m

0.00 mm

08:30

13.2 C

1016.2 hpa

80 %

9.7 km/h aus 114

19.3 km/h aus W

9.8 C

12.3 C

12.4 C

13.0 C

227 W/m

0.00 mm

08:35

13.3 C

1016.2 hpa

78 %

11.3 km/h aus 114

19.3 km/h aus W

9.5 C

12.2 C

12.4 C

13.1 C

244 W/m

0.00 mm

08:40

13.3 C

1016.2 hpa

78 %

12.9 km/h aus 116

19.3 km/h aus WSW

9.6 C

11.8 C

12.1 C

13.1 C

252 W/m

0.00 mm

08:45

13.4 C

1016.3 hpa

78 %

9.7 km/h aus 117

17.7 km/h aus WSW

9.7 C

12.6 C

12.8 C

13.2 C

274 W/m

0.00 mm

08:50

13.6 C

1016.3 hpa

77 %

11.3 km/h aus 116

19.3 km/h aus W

9.6 C

12.4 C

12.7 C

13.3 C

298 W/m

0.00 mm

08:55

13.8 C

1016.3 hpa

77 %

8.0 km/h aus 115

19.3 km/h aus WSW

9.9 C

13.3 C

13.5 C

13.6 C

294 W/m

0.00 mm

09:00

13.8 C

1016.4 hpa

76 %

12.9 km/h aus 116

20.9 km/h aus W

9.7 C

12.4 C

12.7 C

13.6 C

307 W/m

0.00 mm

09:05

13.9 C

1016.4 hpa

76 %

12.9 km/h aus 117

20.9 km/h aus W

9.8 C

12.5 C

12.8 C

13.7 C

317 W/m

0.00 mm

09:10

14.1 C

1016.4 hpa

75 %

9.7 km/h aus 117

16.1 km/h aus W

9.7 C

13.3 C

13.6 C

13.8 C

348 W/m

0.00 mm

09:15

14.3 C

1016.4 hpa

73 %

9.7 km/h aus 116

17.7 km/h aus W

9.5 C

13.4 C

13.8 C

13.9 C

383 W/m

0.00 mm

09:20

14.6 C

1016.4 hpa

74 %

9.7 km/h aus 114

19.3 km/h aus W

10.0 C

13.8 C

14.1 C

14.2 C

399 W/m

0.00 mm

09:25

14.7 C

1016.4 hpa

72 %

9.7 km/h aus 117

17.7 km/h aus NW

9.7 C

13.9 C

14.3 C

14.3 C

387 W/m

0.00 mm

09:30

14.9 C

1016.4 hpa

71 %

9.7 km/h aus 116

17.7 km/h aus W

9.7 C

14.2 C

14.6 C

14.6 C

427 W/m

0.00 mm

09:35

14.9 C

1016.4 hpa

69 %

14.5 km/h aus 116

25.7 km/h aus W

9.2 C

13.1 C

13.5 C

14.4 C

342 W/m

0.00 mm

09:40

14.7 C

1016.4 hpa

70 %

11.3 km/h aus 116

22.5 km/h aus W

9.3 C

13.7 C

14.1 C

14.3 C

328 W/m

0.00 mm

09:45

14.9 C

1016.5 hpa

70 %

8.0 km/h aus 114

17.7 km/h aus W

9.5 C

14.4 C

14.8 C

14.6 C

304 W/m

0.00 mm

09:50

14.7 C

1016.5 hpa

66 %

14.5 km/h aus 117

24.1 km/h aus WNW

8.4 C

12.8 C

13.3 C

14.2 C

318 W/m

0.00 mm

09:55

14.9 C

1016.5 hpa

68 %

9.7 km/h aus 117

19.3 km/h aus W

9.0 C

14.1 C

14.6 C

14.4 C

381 W/m

0.00 mm

10:00

15.4 C

1016.4 hpa

67 %

9.7 km/h aus 116

19.3 km/h aus W

9.3 C

14.7 C

15.1 C

14.9 C

398 W/m

0.00 mm

10:05

15.4 C

1016.4 hpa

67 %

11.3 km/h aus 115

19.3 km/h aus WSW

9.3 C

14.4 C

14.9 C

14.9 C

333 W/m

0.00 mm

10:10

15.3 C

1016.4 hpa

67 %

14.5 km/h aus 115

24.1 km/h aus WNW

9.2 C

13.5 C

13.9 C

14.8 C

311 W/m

0.00 mm

10:15

15.1 C

1016.3 hpa

68 %

9.7 km/h aus 117

19.3 km/h aus WSW

9.2 C

14.3 C

14.7 C

14.6 C

296 W/m

0.00 mm

10:20

15.2 C

1016.3 hpa

67 %

12.9 km/h aus 117

20.9 km/h aus SW

9.1 C

13.8 C

14.3 C

14.7 C

327 W/m

0.00 mm

10:25

15.3 C

1016.3 hpa

66 %

11.3 km/h aus 116

20.9 km/h aus W

9.0 C

14.3 C

14.8 C

14.8 C

282 W/m

0.00 mm

10:30

15.3 C

1016.3 hpa

66 %

9.7 km/h aus 116

19.3 km/h aus WNW

9.0 C

14.5 C

15.0 C

14.8 C

319 W/m

0.00 mm

10:35

15.2 C

1016.3 hpa

67 %

12.9 km/h aus 115

20.9 km/h aus W

9.1 C

13.9 C

14.3 C

14.8 C

290 W/m

0.00 mm

10:40

15.3 C

1016.3 hpa

66 %

12.9 km/h aus 117

24.1 km/h aus W

9.0 C

13.9 C

14.4 C

14.8 C

344 W/m

0.00 mm

10:45

15.4 C

1016.4 hpa

65 %

14.5 km/h aus 116

20.9 km/h aus WNW

8.8 C

13.6 C

14.1 C

14.9 C

440 W/m

0.00 mm

10:50

15.9 C

1016.4 hpa

65 %

9.7 km/h aus 117

19.3 km/h aus W

9.3 C

15.3 C

15.7 C

15.4 C

468 W/m

0.00 mm

10:55

16.2 C

1016.4 hpa

62 %

9.7 km/h aus 114

20.9 km/h aus W

8.9 C

15.6 C

16.1 C

15.7 C

386 W/m

0.00 mm

11:00

15.8 C

1016.4 hpa

63 %

16.1 km/h aus 115

25.7 km/h aus WSW

8.7 C

13.6 C

14.1 C

15.2 C

362 W/m

0.00 mm

11:05

15.7 C

1016.4 hpa

64 %

11.3 km/h aus 117

22.5 km/h aus W

8.9 C

14.7 C

15.2 C

15.1 C

313 W/m

0.00 mm

11:10

15.5 C

1016.4 hpa

64 %

12.9 km/h aus 117

20.9 km/h aus W

8.7 C

14.1 C

14.7 C

14.9 C

255 W/m

0.00 mm

11:15

15.4 C

1016.4 hpa

65 %

11.3 km/h aus 116

20.9 km/h aus WNW

8.9 C

14.5 C

15.0 C

14.9 C

239 W/m

0.00 mm

11:20

15.2 C

1016.4 hpa

64 %

16.1 km/h aus 114

27.4 km/h aus WNW

8.5 C

12.9 C

13.5 C

14.7 C

219 W/m

0.00 mm

11:25

15.0 C

1016.4 hpa

66 %

14.5 km/h aus 117

24.1 km/h aus NW

8.7 C

13.1 C

13.6 C

14.5 C

172 W/m

0.00 mm

11:30

14.6 C

1016.6 hpa

70 %

14.5 km/h aus 117

27.4 km/h aus WNW

9.1 C

12.6 C

13.1 C

14.1 C

234 W/m

0.00 mm

11:35

14.6 C

1016.6 hpa

69 %

12.9 km/h aus 118

25.7 km/h aus W

8.9 C

13.1 C

13.5 C

14.1 C

303 W/m

0.00 mm

11:40

14.6 C

1016.6 hpa

71 %

19.3 km/h aus 115

29.0 km/h aus W

9.4 C

11.7 C

12.1 C

14.2 C

300 W/m

0.00 mm

11:45

14.4 C

1016.7 hpa

73 %

19.3 km/h aus 115

27.4 km/h aus W

9.6 C

11.6 C

11.9 C

14.1 C

332 W/m

0.00 mm

11:50

14.7 C

1016.7 hpa

74 %

12.9 km/h aus 116

22.5 km/h aus NW

10.1 C

13.3 C

13.7 C

14.3 C

432 W/m

0.00 mm

11:55

15.0 C

1016.7 hpa

74 %

16.1 km/h aus 115

22.5 km/h aus WSW

10.4 C

12.9 C

13.2 C

14.7 C

575 W/m

0.00 mm

12:00

15.6 C

1016.5 hpa

70 %

12.9 km/h aus 117

20.9 km/h aus W

10.1 C

14.4 C

14.7 C

15.2 C

588 W/m

0.00 mm

12:05

15.6 C

1016.5 hpa

70 %

9.7 km/h aus 115

19.3 km/h aus SW

10.1 C

15.0 C

15.3 C

15.2 C

590 W/m

0.00 mm

12:10

15.7 C

1016.5 hpa

68 %

12.9 km/h aus 116

20.9 km/h aus SSW

9.8 C

14.4 C

14.8 C

15.3 C

586 W/m

0.00 mm

12:15

15.7 C

1016.4 hpa

68 %

11.3 km/h aus 116

19.3 km/h aus SW

9.8 C

14.8 C

15.2 C

15.3 C

573 W/m

0.00 mm

12:20

15.7 C

1016.4 hpa

69 %

9.7 km/h aus 117

19.3 km/h aus WSW

10.0 C

15.1 C

15.4 C

15.3 C

630 W/m

0.00 mm

12:25

16.2 C

1016.4 hpa

69 %

11.3 km/h aus 117

22.5 km/h aus SW

10.5 C

15.5 C

15.8 C

15.8 C

609 W/m

0.00 mm

12:30

16.2 C

1016.4 hpa

67 %

9.7 km/h aus 114

17.7 km/h aus WSW

10.1 C

15.7 C

16.1 C

15.8 C

514 W/m

0.00 mm

12:35

16.1 C

1016.4 hpa

68 %

11.3 km/h aus 117

22.5 km/h aus SW

10.1 C

15.3 C

15.7 C

15.7 C

451 W/m

0.00 mm

12:40

16.0 C

1016.4 hpa

67 %

9.7 km/h aus 117

17.7 km/h aus SW

9.9 C

15.5 C

15.9 C

15.6 C

346 W/m

0.00 mm

12:45

15.8 C

1016.3 hpa

69 %

9.7 km/h aus 117

17.7 km/h aus W

10.2 C

15.3 C

15.7 C

15.5 C

368 W/m

0.00 mm

12:50

15.9 C

1016.3 hpa

66 %

9.7 km/h aus 115

19.3 km/h aus W

9.6 C

15.3 C

15.8 C

15.5 C

426 W/m

0.00 mm

12:55

16.3 C

1016.3 hpa

65 %

9.7 km/h aus 115

22.5 km/h aus W

9.7 C

15.8 C

16.2 C

15.8 C

364 W/m

0.00 mm

13:00

16.3 C

1016.2 hpa

65 %

9.7 km/h aus 117

19.3 km/h aus W

9.7 C

15.8 C

16.2 C

15.8 C

293 W/m

0.00 mm

13:05

16.6 C

1016.2 hpa

64 %

8.0 km/h aus 116

17.7 km/h aus SW

9.7 C

16.1 C

16.6 C

16.1 C

419 W/m

0.00 mm

13:10

16.7 C

1016.2 hpa

64 %

9.7 km/h aus 117

14.5 km/h aus W

9.9 C

16.3 C

16.7 C

16.3 C

470 W/m

0.00 mm

13:15

16.9 C

1016.1 hpa

64 %

11.3 km/h aus 115

19.3 km/h aus W

10.1 C

16.4 C

16.8 C

16.6 C

373 W/m

0.00 mm

13:20

16.8 C

1016.1 hpa

62 %

11.3 km/h aus 116

17.7 km/h aus W

9.5 C

16.2 C

16.7 C

16.3 C

286 W/m

0.00 mm

13:25

16.6 C

1016.1 hpa

61 %

8.0 km/h aus 117

11.3 km/h aus WSW

9.1 C

16.0 C

16.6 C

16.0 C

276 W/m

0.00 mm

13:30

16.5 C

1016.0 hpa

62 %

8.0 km/h aus 117

19.3 km/h aus NW

9.2 C

15.9 C

16.5 C

15.9 C

188 W/m

0.00 mm

13:35

16.4 C

1016.0 hpa

62 %

9.7 km/h aus 116

19.3 km/h aus W

9.1 C

15.8 C

16.4 C

15.9 C

136 W/m

0.00 mm

13:40

16.3 C

1016.0 hpa

63 %

11.3 km/h aus 115

19.3 km/h aus W

9.3 C

15.6 C

16.1 C

15.8 C

150 W/m

0.00 mm

13:45

16.4 C

1016.2 hpa

63 %

11.3 km/h aus 117

24.1 km/h aus WNW

9.3 C

15.7 C

16.2 C

15.9 C

244 W/m

0.00 mm

13:50

16.4 C

1016.2 hpa

63 %

11.3 km/h aus 117

24.1 km/h aus WNW

9.4 C

15.7 C

16.2 C

15.9 C

197 W/m

0.00 mm

13:55

16.2 C

1016.2 hpa

64 %

14.5 km/h aus 117

25.7 km/h aus WNW

9.3 C

14.5 C

15.0 C

15.7 C

192 W/m

0.00 mm

14:00

16.1 C

1016.2 hpa

65 %

12.9 km/h aus 115

22.5 km/h aus W

9.5 C

14.9 C

15.4 C

15.7 C

205 W/m

0.00 mm

14:05

16.1 C

1016.2 hpa

64 %

16.1 km/h aus 115

27.4 km/h aus W

9.2 C

13.9 C

14.4 C

15.6 C

240 W/m

0.00 mm

14:10

16.2 C

1016.2 hpa

65 %

14.5 km/h aus 117

27.4 km/h aus W

9.6 C

14.6 C

15.1 C

15.8 C

281 W/m

0.00 mm

14:15

16.5 C

1016.1 hpa

65 %

12.9 km/h aus 117

20.9 km/h aus W

9.9 C

15.4 C

15.8 C

16.1 C

355 W/m

0.00 mm

14:20

16.8 C

1016.1 hpa

64 %

12.9 km/h aus 117

17.7 km/h aus SW

9.9 C

15.7 C

16.2 C

16.3 C

413 W/m

0.00 mm

14:25

17.1 C

1016.1 hpa

62 %

12.9 km/h aus 115

20.9 km/h aus W

9.8 C

16.1 C

16.6 C

16.6 C

572 W/m

0.00 mm

14:30

17.5 C

1015.9 hpa

64 %

9.7 km/h aus 115

20.9 km/h aus SW

10.6 C

17.2 C

17.5 C

17.2 C

600 W/m

0.00 mm

14:35

18.4 C

1015.9 hpa

62 %

11.3 km/h aus 117

22.5 km/h aus SW

11.0 C

18.1 C

18.4 C

18.1 C

650 W/m

0.00 mm

14:40

18.6 C

1015.9 hpa

60 %

9.7 km/h aus 116

19.3 km/h aus WSW

10.7 C

18.2 C

18.6 C

18.2 C

645 W/m

0.00 mm

14:45

18.6 C

1015.9 hpa

62 %

11.3 km/h aus 116

22.5 km/h aus WSW

11.1 C

18.2 C

18.6 C

18.2 C

645 W/m

0.00 mm

14:50

19.0 C

1015.9 hpa

61 %

9.7 km/h aus 113

22.5 km/h aus WSW

11.3 C

18.7 C

19.0 C

18.7 C

645 W/m

0.00 mm

14:55

19.1 C

1015.9 hpa

59 %

9.7 km/h aus 117

19.3 km/h aus WSW

10.9 C

18.7 C

19.1 C

18.7 C

569 W/m

0.00 mm

15:00

17.9 C

1015.8 hpa

61 %

6.4 km/h aus 117

16.1 km/h aus SSW

10.3 C

17.5 C

17.9 C

17.5 C

509 W/m

0.00 mm

15:05

17.4 C

1015.8 hpa

62 %

9.7 km/h aus 116

19.3 km/h aus SW

10.1 C

17.0 C

17.4 C

17.0 C

254 W/m

0.00 mm

15:10

17.2 C

1015.8 hpa

64 %

12.9 km/h aus 114

22.5 km/h aus W

10.3 C

16.3 C

16.7 C

16.8 C

108 W/m

0.00 mm

15:15

17.3 C

1016.0 hpa

68 %

9.7 km/h aus 115

20.9 km/h aus WNW

11.3 C

17.1 C

17.3 C

17.1 C

50 W/m

0.00 mm

15:20

17.0 C

1016.0 hpa

72 %

11.3 km/h aus 117

22.5 km/h aus N

11.9 C

16.7 C

16.9 C

16.8 C

67 W/m

1.02 mm

15:25

16.6 C

1016.0 hpa

74 %

8.0 km/h aus 117

16.1 km/h aus NW

11.9 C

16.4 C

16.6 C

16.4 C

121 W/m

0.25 mm

15:30

16.2 C

1016.4 hpa

76 %

6.4 km/h aus 116

12.9 km/h aus WNW

11.9 C

16.1 C

16.2 C

16.1 C

181 W/m

0.00 mm

15:35

15.9 C

1016.4 hpa

78 %

6.4 km/h aus 115

12.9 km/h aus NW

12.1 C

15.8 C

15.9 C

15.8 C

220 W/m

0.25 mm

15:40

15.7 C

1016.4 hpa

79 %

4.8 km/h aus 116

8.0 km/h aus WNW

12.1 C

15.7 C

15.7 C

15.7 C

208 W/m

0.00 mm

15:45

15.6 C

1016.4 hpa

79 %

3.2 km/h aus 116

6.4 km/h aus WNW

12.0 C

15.5 C

15.6 C

15.5 C

162 W/m

0.25 mm

15:50

15.5 C

1016.4 hpa

80 %

4.8 km/h aus 118

11.3 km/h aus W

12.1 C

15.4 C

15.5 C

15.4 C

168 W/m

0.00 mm

15:55

15.4 C

1016.4 hpa

81 %

1.6 km/h aus 114

6.4 km/h aus WSW

12.2 C

15.4 C

15.4 C

15.4 C

230 W/m

0.25 mm

16:00

15.4 C

1016.3 hpa

81 %

3.2 km/h aus 114

8.0 km/h aus WSW

12.1 C

15.3 C

15.4 C

15.3 C

304 W/m

0.00 mm

16:05

15.1 C

1016.3 hpa

86 %

4.8 km/h aus 117

8.0 km/h aus WSW

12.7 C

15.1 C

15.1 C

15.1 C

487 W/m

0.00 mm

16:10

14.8 C

1016.3 hpa

85 %

4.8 km/h aus 116

9.7 km/h aus S

12.3 C

14.8 C

14.8 C

14.8 C

268 W/m

0.00 mm

16:15

14.8 C

1016.1 hpa

86 %

1.6 km/h aus 117

4.8 km/h aus SW

12.5 C

14.8 C

14.8 C

14.8 C

228 W/m

0.00 mm

16:20

14.8 C

1016.1 hpa

86 %

4.8 km/h aus 115

6.4 km/h aus SW

12.5 C

14.8 C

14.8 C

14.8 C

188 W/m

0.00 mm

16:25

14.8 C

1016.1 hpa

86 %

6.4 km/h aus 115

14.5 km/h aus W

12.5 C

14.8 C

14.8 C

14.8 C

135 W/m

0.00 mm

16:30

14.8 C

1016.5 hpa

87 %

8.0 km/h aus 117

17.7 km/h aus WNW

12.6 C

14.6 C

14.6 C

14.8 C

123 W/m

0.00 mm

16:35

14.4 C

1016.5 hpa

86 %

11.3 km/h aus 116

20.9 km/h aus WNW

12.1 C

13.7 C

13.8 C

14.4 C

148 W/m

0.25 mm

16:40

14.2 C

1016.5 hpa

88 %

8.0 km/h aus 117

16.1 km/h aus NW

12.3 C

13.9 C

13.9 C

14.2 C

176 W/m

0.00 mm

16:45

14.2 C

1016.4 hpa

89 %

8.0 km/h aus 115

16.1 km/h aus NW

12.4 C

13.9 C

13.9 C

14.2 C

178 W/m

0.25 mm

16:50

14.2 C

1016.4 hpa

89 %

6.4 km/h aus 114

9.7 km/h aus W

12.4 C

14.3 C

14.2 C

14.3 C

198 W/m

0.00 mm

16:55

14.4 C

1016.4 hpa

89 %

3.2 km/h aus 118

8.0 km/h aus SW

12.6 C

14.4 C

14.4 C

14.4 C

225 W/m

0.00 mm

17:00

14.6 C

1016.1 hpa

88 %

3.2 km/h aus 117

6.4 km/h aus WNW

12.6 C

14.6 C

14.6 C

14.6 C

262 W/m

0.00 mm

17:05

15.1 C

1016.1 hpa

88 %

4.8 km/h aus 117

8.0 km/h aus WNW

13.1 C

15.2 C

15.1 C

15.2 C

355 W/m

0.00 mm

17:10

15.3 C

1016.1 hpa

86 %

4.8 km/h aus 116

8.0 km/h aus WSW

12.9 C

15.3 C

15.3 C

15.3 C

332 W/m

0.00 mm

17:15

15.3 C

1016.1 hpa

85 %

6.4 km/h aus 115

11.3 km/h aus W

12.8 C

15.4 C

15.3 C

15.4 C

302 W/m

0.00 mm

17:20

15.7 C

1016.1 hpa

84 %

4.8 km/h aus 117

9.7 km/h aus WNW

13.0 C

15.7 C

15.7 C

15.7 C

322 W/m

0.00 mm

17:25

15.8 C

1016.1 hpa

84 %

6.4 km/h aus 117

11.3 km/h aus W

13.1 C

15.9 C

15.8 C

15.9 C

328 W/m

0.00 mm

17:30

15.9 C

1016.0 hpa

84 %

4.8 km/h aus 117

11.3 km/h aus W

13.2 C

15.9 C

15.9 C

15.9 C

280 W/m

0.00 mm

17:35

15.8 C

1016.0 hpa

82 %

8.0 km/h aus 114

16.1 km/h aus WNW

12.7 C

15.8 C

15.8 C

15.8 C

303 W/m

0.00 mm

17:40

16.4 C

1016.0 hpa

83 %

6.4 km/h aus 115

17.7 km/h aus W

13.5 C

16.6 C

16.4 C

16.6 C

395 W/m

0.00 mm

17:45

16.6 C

1015.9 hpa

80 %

8.0 km/h aus 117

16.1 km/h aus W

13.1 C

16.7 C

16.6 C

16.7 C

450 W/m

0.00 mm

17:50

16.6 C

1015.9 hpa

77 %

8.0 km/h aus 117

16.1 km/h aus W

12.5 C

16.5 C

16.6 C

16.5 C

285 W/m

0.00 mm

17:55

16.6 C

1015.9 hpa

77 %

8.0 km/h aus 116

14.5 km/h aus NW

12.6 C

16.6 C

16.6 C

16.6 C

411 W/m

0.00 mm

18:00

16.6 C

1015.9 hpa

75 %

8.0 km/h aus 115

16.1 km/h aus W

12.1 C

16.4 C

16.6 C

16.4 C

251 W/m

0.00 mm

18:05

16.3 C

1015.9 hpa

76 %

8.0 km/h aus 116

14.5 km/h aus NW

12.0 C

16.2 C

16.3 C

16.2 C

150 W/m

0.00 mm

18:10

16.1 C

1015.9 hpa

76 %

11.3 km/h aus 117

19.3 km/h aus WNW

11.8 C

15.6 C

15.7 C

15.9 C

168 W/m

0.00 mm

18:15

16.2 C

1015.8 hpa

75 %

9.7 km/h aus 117

16.1 km/h aus WNW

11.8 C

15.9 C

16.1 C

16.1 C

263 W/m

0.00 mm

18:20

16.6 C

1015.8 hpa

72 %

9.7 km/h aus 115

19.3 km/h aus NW

11.5 C

16.4 C

16.6 C

16.4 C

293 W/m

0.00 mm

18:25

16.5 C

1015.8 hpa

72 %

11.3 km/h aus 115

20.9 km/h aus WNW

11.4 C

16.1 C

16.3 C

16.3 C

375 W/m

0.00 mm

18:30

16.9 C

1015.8 hpa

71 %

8.0 km/h aus 117

14.5 km/h aus NW

11.6 C

16.7 C

16.9 C

16.7 C

372 W/m

0.00 mm

18:35

17.0 C

1015.8 hpa

70 %

9.7 km/h aus 117

20.9 km/h aus WNW

11.5 C

16.8 C

17.0 C

16.8 C

353 W/m

0.00 mm

18:40

17.1 C

1015.8 hpa

67 %

9.7 km/h aus 117

20.9 km/h aus WNW

10.9 C

16.8 C

17.1 C

16.8 C

342 W/m

0.00 mm

18:45

17.0 C

1015.6 hpa

67 %

12.9 km/h aus 115

22.5 km/h aus NNW

10.8 C

16.2 C

16.4 C

16.7 C

327 W/m

0.00 mm

18:50

16.8 C

1015.6 hpa

64 %

12.9 km/h aus 116

19.3 km/h aus NW

10.0 C

15.8 C

16.3 C

16.4 C

298 W/m

0.00 mm

18:55

16.7 C

1015.6 hpa

65 %

11.3 km/h aus 116

22.5 km/h aus WNW

10.1 C

16.1 C

16.5 C

16.3 C

296 W/m

0.00 mm

19:00

16.8 C

1015.5 hpa

65 %

11.3 km/h aus 118

24.1 km/h aus NW

10.2 C

16.2 C

16.6 C

16.4 C

68 W/m

0.00 mm

19:05

16.7 C

1015.5 hpa

65 %

12.9 km/h aus 117

24.1 km/h aus WNW

10.1 C

15.7 C

16.1 C

16.3 C

63 W/m

0.00 mm

19:10

16.8 C

1015.5 hpa

65 %

9.7 km/h aus 114

24.1 km/h aus NW

10.2 C

16.4 C

16.8 C

16.4 C

60 W/m

0.00 mm

19:15

16.8 C

1015.6 hpa

65 %

8.0 km/h aus 116

17.7 km/h aus NW

10.2 C

16.4 C

16.8 C

16.4 C

58 W/m

0.00 mm

19:20

16.8 C

1015.6 hpa

66 %

8.0 km/h aus 117

16.1 km/h aus WNW

10.4 C

16.4 C

16.8 C

16.4 C

56 W/m

0.00 mm

19:25

16.8 C

1015.6 hpa

65 %

6.4 km/h aus 116

11.3 km/h aus NNW

10.2 C

16.4 C

16.8 C

16.4 C

56 W/m

0.00 mm

19:30

16.8 C

1015.5 hpa

64 %

11.3 km/h aus 116

19.3 km/h aus WNW

9.9 C

16.2 C

16.6 C

16.3 C

57 W/m

0.00 mm

19:35

16.8 C

1015.5 hpa

64 %

8.0 km/h aus 115

14.5 km/h aus NW

9.9 C

16.3 C

16.8 C

16.3 C

58 W/m

0.00 mm

19:40

16.8 C

1015.5 hpa

64 %

11.3 km/h aus 116

20.9 km/h aus WNW

9.9 C

16.2 C

16.6 C

16.3 C

56 W/m

0.00 mm

19:45

16.8 C

1015.6 hpa

65 %

12.9 km/h aus 117

20.9 km/h aus NW

10.2 C

15.8 C

16.2 C

16.4 C

52 W/m

0.00 mm

19:50

16.7 C

1015.6 hpa

65 %

8.0 km/h aus 115

14.5 km/h aus NW

10.1 C

16.3 C

16.7 C

16.3 C

50 W/m

0.00 mm

19:55

16.7 C

1015.6 hpa

66 %

9.7 km/h aus 114

20.9 km/h aus NNW

10.3 C

16.3 C

16.7 C

16.3 C

48 W/m

0.00 mm

20:00

16.6 C

1015.9 hpa

66 %

6.4 km/h aus 115

11.3 km/h aus NW

10.2 C

16.2 C

16.6 C

16.2 C

46 W/m

0.00 mm

20:05

16.6 C

1015.9 hpa

66 %

6.4 km/h aus 117

11.3 km/h aus NNW

10.2 C

16.2 C

16.6 C

16.2 C

44 W/m

0.00 mm

20:10

16.5 C

1015.9 hpa

66 %

9.7 km/h aus 115

17.7 km/h aus NW

10.1 C

16.1 C

16.4 C

16.1 C

42 W/m

0.00 mm

20:15

16.4 C

1015.9 hpa

66 %

6.4 km/h aus 117

9.7 km/h aus WNW

10.0 C

16.0 C

16.4 C

16.0 C

40 W/m

0.00 mm

20:20

16.3 C

1015.9 hpa

66 %

9.7 km/h aus 115

19.3 km/h aus NW

10.0 C

15.9 C

16.3 C

15.9 C

38 W/m

0.00 mm

20:25

16.2 C

1015.9 hpa

66 %

8.0 km/h aus 116

17.7 km/h aus NNE

9.9 C

15.8 C

16.2 C

15.8 C

40 W/m

0.00 mm

20:30

16.1 C

1016.0 hpa

67 %

6.4 km/h aus 115

16.1 km/h aus NNW

10.0 C

15.7 C

16.1 C

15.7 C

34 W/m

0.00 mm

20:35

16.0 C

1016.0 hpa

66 %

9.7 km/h aus 116

19.3 km/h aus WNW

9.6 C

15.4 C

15.9 C

15.6 C

32 W/m

0.00 mm

20:40

15.9 C

1016.0 hpa

67 %

6.4 km/h aus 116

11.3 km/h aus N

9.8 C

15.5 C

15.9 C

15.5 C

28 W/m

0.00 mm

20:45

15.8 C

1016.1 hpa

67 %

6.4 km/h aus 113

11.3 km/h aus NNW

9.7 C

15.3 C

15.8 C

15.3 C

25 W/m

0.00 mm

20:50

15.7 C

1016.1 hpa

67 %

4.8 km/h aus 115

8.0 km/h aus NW

9.6 C

15.2 C

15.7 C

15.2 C

23 W/m

0.00 mm

20:55

15.6 C

1016.1 hpa

67 %

3.2 km/h aus 117

6.4 km/h aus NNW

9.4 C

15.1 C

15.6 C

15.1 C

21 W/m

0.00 mm

21:00

15.5 C

1016.3 hpa

68 %

3.2 km/h aus 117

8.0 km/h aus NW

9.6 C

15.1 C

15.5 C

15.1 C

19 W/m

0.00 mm

21:05

15.3 C

1016.3 hpa

68 %

4.8 km/h aus 117

8.0 km/h aus NW

9.5 C

14.9 C

15.3 C

14.9 C

18 W/m

0.00 mm

21:10

15.3 C

1016.3 hpa

69 %

3.2 km/h aus 115

6.4 km/h aus NW

9.6 C

14.9 C

15.3 C

14.9 C

16 W/m

0.00 mm

21:15

15.2 C

1016.4 hpa

69 %

3.2 km/h aus 116

6.4 km/h aus NW

9.6 C

14.8 C

15.2 C

14.8 C

13 W/m

0.00 mm

21:20

15.1 C

1016.4 hpa

69 %

3.2 km/h aus 117

6.4 km/h aus NW

9.5 C

14.7 C

15.1 C

14.7 C

10 W/m

0.00 mm

21:25

15.0 C

1016.4 hpa

69 %

1.6 km/h aus 117

4.8 km/h aus NW

9.4 C

14.6 C

15.0 C

14.6 C

8 W/m

0.00 mm

21:30

14.8 C

1016.5 hpa

69 %

1.6 km/h aus 115

4.8 km/h aus NW

9.2 C

14.4 C

14.8 C

14.4 C

5 W/m

0.00 mm

21:35

14.7 C

1016.5 hpa

70 %

1.6 km/h aus 115

4.8 km/h aus NW

9.3 C

14.3 C

14.7 C

14.3 C

1 W/m

0.00 mm

21:40

14.6 C

1016.5 hpa

70 %

0.0 km/h aus 115

3.2 km/h aus NW

9.1 C

14.1 C

14.6 C

14.1 C

0 W/m

0.00 mm

21:45

14.3 C

1016.6 hpa

71 %

1.6 km/h aus 116

3.2 km/h aus NW

9.1 C

13.9 C

14.3 C

13.9 C

0 W/m

0.00 mm

21:50

14.1 C

1016.6 hpa

72 %

1.6 km/h aus 116

3.2 km/h aus NW

9.1 C

13.7 C

14.1 C

13.7 C

0 W/m

0.00 mm

21:55

13.9 C

1016.6 hpa

72 %

0.0 km/h aus 116

1.6 km/h aus NW

9.0 C

13.6 C

13.9 C

13.6 C

0 W/m

0.00 mm

22:00

13.7 C

1016.7 hpa

73 %

0.0 km/h aus 115

0.0 km/h aus ---

9.0 C

13.4 C

13.7 C

13.4 C

0 W/m

0.00 mm

22:05

13.4 C

1016.7 hpa

74 %

0.0 km/h aus 115

0.0 km/h aus ---

8.9 C

13.1 C

13.4 C

13.1 C

0 W/m

0.00 mm

22:10

13.2 C

1016.7 hpa

74 %

1.6 km/h aus 118

1.6 km/h aus NW

8.7 C

12.9 C

13.2 C

12.9 C

0 W/m

0.00 mm

22:15

13.1 C

1016.6 hpa

75 %

1.6 km/h aus 117

1.6 km/h aus NW

8.7 C

12.8 C

13.1 C

12.8 C

0 W/m

0.00 mm

22:20

12.8 C

1016.6 hpa

76 %

0.0 km/h aus 117

1.6 km/h aus NW

8.7 C

12.6 C

12.8 C

12.6 C

0 W/m

0.00 mm

22:25

12.7 C

1016.6 hpa

76 %

0.0 km/h aus 116

1.6 km/h aus NW

8.5 C

12.4 C

12.7 C

12.4 C

0 W/m

0.00 mm

22:30

12.6 C

1016.8 hpa

77 %

1.6 km/h aus 114

4.8 km/h aus NW

8.6 C

12.3 C

12.6 C

12.3 C

0 W/m

0.00 mm

22:35

12.5 C

1016.8 hpa

77 %

1.6 km/h aus 116

6.4 km/h aus NW

8.6 C

12.3 C

12.5 C

12.3 C

0 W/m

0.00 mm

22:40

12.4 C

1016.8 hpa

78 %

3.2 km/h aus 117

4.8 km/h aus NW

8.7 C

12.2 C

12.4 C

12.2 C

0 W/m

0.00 mm

22:45

12.4 C

1016.8 hpa

78 %

3.2 km/h aus 116

4.8 km/h aus NW

8.7 C

12.2 C

12.4 C

12.2 C

0 W/m

0.00 mm

22:50

12.4 C

1016.8 hpa

79 %

3.2 km/h aus 116

8.0 km/h aus WNW

8.8 C

12.2 C

12.4 C

12.2 C

0 W/m

0.00 mm

22:55

12.3 C

1016.8 hpa

80 %

3.2 km/h aus 114

4.8 km/h aus NW

9.0 C

12.2 C

12.3 C

12.2 C

0 W/m

0.00 mm

23:00

12.3 C

1016.9 hpa

80 %

3.2 km/h aus 115

8.0 km/h aus NNW

9.0 C

12.2 C

12.3 C

12.2 C

0 W/m

0.00 mm

23:05

12.3 C

1016.9 hpa

80 %

1.6 km/h aus 117

4.8 km/h aus NW

8.9 C

12.1 C

12.3 C

12.1 C

0 W/m

0.00 mm

23:10

12.2 C

1016.9 hpa

80 %

3.2 km/h aus 116

6.4 km/h aus NW

8.8 C

12.0 C

12.2 C

12.0 C

0 W/m

0.00 mm

23:15

12.1 C

1016.9 hpa

79 %

1.6 km/h aus 118

4.8 km/h aus NW

8.6 C

11.9 C

12.1 C

11.9 C

0 W/m

0.00 mm

23:20

12.0 C

1016.9 hpa

79 %

0.0 km/h aus 116

1.6 km/h aus NW

8.5 C

11.8 C

12.0 C

11.8 C

0 W/m

0.00 mm

23:25

11.9 C

1016.9 hpa

79 %

0.0 km/h aus 113

0.0 km/h aus ---

8.4 C

11.7 C

11.9 C

11.7 C

0 W/m

0.00 mm

23:30

11.7 C

1017.0 hpa

79 %

0.0 km/h aus 116

1.6 km/h aus NW

8.2 C

11.6 C

11.7 C

11.6 C

0 W/m

0.00 mm

23:35

11.6 C

1017.0 hpa

79 %

0.0 km/h aus 117

0.0 km/h aus ---

8.0 C

11.4 C

11.6 C

11.4 C

0 W/m

0.00 mm

23:40

11.4 C

1017.0 hpa

79 %

0.0 km/h aus 117

0.0 km/h aus ---

7.9 C

11.2 C

11.4 C

11.2 C

0 W/m

0.00 mm

23:45

11.2 C

1017.0 hpa

79 %

0.0 km/h aus 116

1.6 km/h aus NW

7.7 C

11.1 C

11.2 C

11.1 C

0 W/m

0.00 mm

23:50

11.1 C

1017.0 hpa

79 %

0.0 km/h aus 114

3.2 km/h aus NW

7.6 C

10.9 C

11.1 C

10.9 C

0 W/m

0.00 mm

23:55

10.9 C

1017.0 hpa

80 %

0.0 km/h aus 115

1.6 km/h aus NW

7.6 C

10.8 C

10.9 C

10.8 C

0 W/m

0.00 mm